TimeEDT,TemperatureF,Dew PointF,Humidity,Sea Level PressureIn,VisibilityMPH,Wind Direction,Wind SpeedMPH,Gust SpeedMPH,PrecipitationIn,Events,Conditions,WindDirDegrees,DateUTC
12:58 AM,66.0,57.7,75,30.21,10.0,East,4.6,-,N/A,,Partly Cloudy,100,2013-03-31 04:58:00
1:58 AM,66.6,58.3,75,30.19,10.0,East,6.9,-,N/A,,Clear,90,2013-03-31 05:58:00
2:58 AM,66.2,58.5,76,30.17,10.0,East,5.8,-,N/A,,Clear,100,2013-03-31 06:58:00
3:58 AM,65.5,58.8,79,30.15,10.0,East,4.6,-,N/A,,Clear,90,2013-03-31 07:58:00
4:58 AM,65.7,58.5,78,30.15,10.0,East,4.6,-,N/A,,Clear,100,2013-03-31 08:58:00
5:58 AM,64.8,57.9,78,30.15,10.0,ESE,4.6,-,N/A,,Clear,110,2013-03-31 09:58:00
6:58 AM,65.1,59.5,82,30.16,10.0,East,3.5,-,N/A,,Partly Cloudy,100,2013-03-31 10:58:00
7:58 AM,68.0,62.6,83,30.16,10.0,ESE,5.8,-,N/A,,Scattered Clouds,110,2013-03-31 11:58:00
8:58 AM,73.6,63.1,70,30.17,10.0,ESE,8.1,-,N/A,,Partly Cloudy,120,2013-03-31 12:58:00
9:28 AM,75.2,62.6,65,30.16,10.0,ESE,9.2,-,N/A,,Mostly Cloudy,110,2013-03-31 13:28:00
9:33 AM,75.2,62.6,65,30.17,10.0,ESE,12.7,-,N/A,,Scattered Clouds,110,2013-03-31 13:33:00
9:58 AM,74.1,62.4,67,30.17,10.0,ESE,13.8,-,N/A,,Partly Cloudy,120,2013-03-31 13:58:00
10:58 AM,77.4,62.2,59,30.17,10.0,ESE,13.8,23.0,N/A,,Partly Cloudy,120,2013-03-31 14:58:00
11:58 AM,78.3,62.6,58,30.17,10.0,ESE,16.1,-,N/A,,Partly Cloudy,110,2013-03-31 15:58:00
12:58 PM,78.3,63.7,61,30.15,10.0,ESE,15.0,20.7,N/A,,Clear,120,2013-03-31 16:58:00
1:58 PM,78.3,63.9,61,30.12,10.0,SSE,15.0,-,N/A,,Partly Cloudy,150,2013-03-31 17:58:00
2:58 PM,77.5,64.4,64,30.12,10.0,ESE,15.0,-,N/A,,Partly Cloudy,120,2013-03-31 18:58:00
3:58 PM,79.2,66.0,64,30.10,10.0,SE,15.0,19.6,N/A,,Partly Cloudy,130,2013-03-31 19:58:00
4:58 PM,77.0,65.8,68,30.08,10.0,ESE,12.7,-,N/A,,Partly Cloudy,110,2013-03-31 20:58:00
5:58 PM,77.5,65.8,67,30.08,10.0,ESE,12.7,-,N/A,,Scattered Clouds,120,2013-03-31 21:58:00
6:58 PM,75.2,66.4,74,30.07,10.0,SE,9.2,-,N/A,,Partly Cloudy,130,2013-03-31 22:58:00
7:58 PM,72.7,66.4,81,30.07,10.0,SE,5.8,-,N/A,,Clear,130,2013-03-31 23:58:00
8:58 PM,71.4,66.0,83,30.08,10.0,ESE,5.8,-,N/A,,Clear,120,2013-04-01 00:58:00
9:58 PM,71.6,66.6,84,30.08,10.0,ESE,8.1,-,N/A,,Clear,120,2013-04-01 01:58:00
10:58 PM,71.8,66.9,85,30.09,10.0,SE,5.8,-,N/A,,Clear,140,2013-04-01 02:58:00
11:58 PM,72.0,67.3,85,30.09,10.0,SSE,8.1,-,N/A,,Clear,160,2013-04-01 03:58:00